Ignacio, CO

7:43 PM MST on February 25, 2017 (GMT -0700)
Durango-La Plata County

Weather History for KDRO - April, 2013

Change the Weather History Date:

Thursday, April 4, 2013

  Actual Average Record
Temperature  
Mean Temperature 45 °F 42 °F  
Max Temperature 67 °F 58 °F 72 °F (2002)
Min Temperature 22 °F 27 °F 15 °F (1974)
Degree Days  
Heating Degree Days 20 23  
Month to date heating degree days 82 92  
Since 1 July heating degree days 6221 6121  
Cooling Degree Days 0 0  
Month to date cooling degree days 0 0  
Year to date cooling degree days 0 0  
Moisture  
Dew Point 14 °F    
Average Humidity 36    
Maximum Humidity 57    
Minimum Humidity 14    
Precipitation  
Precipitation 0.00 in 0.04 in 0.72 in (1987)
Month to date precipitation T 0.15  
Year to date precipitation 2.61 3.68  
Sea Level Pressure  
Sea Level Pressure 30.12 in    
Wind  
Wind Speed 5 mph (WNW)    
Max Wind Speed 17 mph    
Max Gust Speed 32 mph    
Visibility 10 miles    
Events      
T = Trace of Precipitation, MM = Missing Value Source: NWS Daily Summary

Daily Weather History Graph

Daily Weather History Graph

Search for Another Location

Airport or City:

Trip Planner

Search our weather history database for the weather conditions in past years. The results will help you decide how hot, cold, wet, or windy it might be!

Date:

Astronomy

Apr. 04, 2013 Rise Set
Actual Time 6:51 AM MDT 7:36 PM MDT
Civil Twilight 6:25 AM MDT 8:02 PM MDT
Nautical Twilight 5:54 AM MDT 8:34 PM MDT
Astronomical Twilight 5:22 AM MDT 9:06 PM MDT
Moon 3:13 AM MDT (4/4) 2:05 PM MDT (4/4)
Length of Visible Light 13h 37m
Length of Day
12h 44m
Waning Crescent, 33% of the Moon is Illuminated
Apr 4
Waning Crescent
Apr 10
New
Apr 18
First Quarter
Apr 25
Full
May 2
Last Quarter

Hourly Weather History & Observations

Time (MDT) Temp. Windchill Dew Point Humidity Pressure Visibility Wind Dir Wind Speed Gust Speed Precip Events Conditions
12:53 AM 35.1 °F - 12.0 °F 39% 30.13 in 10.0 mi Calm Calm - N/A   Clear
1:53 AM 34.0 °F - 12.0 °F 40% 30.12 in 10.0 mi Calm Calm - N/A   Clear
2:53 AM 34.0 °F - 10.9 °F 38% 30.13 in 10.0 mi Calm Calm - N/A   Clear
3:53 AM 30.9 °F 27.5 °F 12.0 °F 46% 30.13 in 10.0 mi North 3.5 mph - N/A   Clear
4:53 AM 32.0 °F 28.7 °F 12.9 °F 45% 30.14 in 10.0 mi NE 3.5 mph - N/A   Clear
5:53 AM 30.9 °F - 12.0 °F 46% 30.16 in 10.0 mi Calm Calm - N/A   Clear
6:53 AM 21.9 °F 15.7 °F 8.1 °F 55% 30.22 in 10.0 mi ENE 4.6 mph - N/A   Clear
7:53 AM 34.0 °F - 12.9 °F 42% 30.22 in 10.0 mi Calm Calm - N/A   Clear
8:53 AM 42.1 °F - 16.0 °F 35% 30.21 in 10.0 mi Calm Calm - N/A   Clear
9:53 AM 48.0 °F - 17.1 °F 29% 30.18 in 10.0 mi Calm Calm - N/A   Clear
10:53 AM 55.0 °F - 16.0 °F 22% 30.16 in 10.0 mi WSW 4.6 mph - N/A   Clear
11:53 AM 57.9 °F - 16.0 °F 19% 30.16 in 10.0 mi Calm Calm - N/A   Clear
12:53 PM 61.0 °F - 16.0 °F 17% 30.14 in 10.0 mi WNW 8.1 mph - N/A   Clear
1:53 PM 64.0 °F - 15.1 °F 15% 30.09 in 10.0 mi Variable 6.9 mph - N/A   Clear
2:53 PM 66.0 °F - 16.0 °F 15% 30.06 in 10.0 mi South 10.4 mph 19.6 mph N/A   Clear
3:53 PM 64.9 °F - 17.1 °F 16% 30.06 in 10.0 mi West 12.7 mph 23.0 mph N/A   Clear
4:53 PM 64.9 °F - 17.1 °F 16% 30.04 in 10.0 mi WSW 16.1 mph 20.7 mph N/A   Clear
5:53 PM 64.0 °F - 16.0 °F 16% 30.04 in 10.0 mi WSW 10.4 mph - N/A   Clear
6:53 PM 61.0 °F - 12.9 °F 15% 30.11 in 10.0 mi WSW 8.1 mph - N/A   Clear
7:53 PM 55.9 °F - 12.0 °F 18% 30.09 in 10.0 mi SW 4.6 mph - N/A   Clear
8:53 PM 55.0 °F - 10.9 °F 17% 30.06 in 10.0 mi Calm Calm - N/A   Clear
9:53 PM 48.0 °F - 14.0 °F 26% 30.09 in 10.0 mi North 5.8 mph - N/A   Clear
10:53 PM 42.1 °F 40.2 °F 12.9 °F 31% 30.08 in 10.0 mi North 3.5 mph - N/A   Clear
11:53 PM 41.0 °F 37.1 °F 17.1 °F 38% 30.06 in 10.0 mi NNE 5.8 mph - N/A   Clear